Tracking 20241 objects as of 26-Jan-2020
HD Live streaming from Space Station
objects crossing your sky now

FENGYUN 1C DEB

Track FENGYUN 1C DEB now!
10-day predictions


NORAD ID: 30561
Int'l Code: 1999-025ALB
Perigee: 825.6 km
Apogee: 916.6 km
Inclination: 98.8 °
Period: 102.2 minutes
Semi major axis: 7242 km
RCS: 0.0205 m2 (small)
Launch date: May 10, 1999
Source: People's Republic of China (PRC)
Launch site: Taiyaun Space Center, China (TSC)

Note: This is SATELLITE DEBRIS
aabbcc
Your satellite tracking list
Your tracking list is empty




NASA's NSSDC Master Catalog

Two Line Element Set (TLE):
1 30561U 99025ALB 20026.06074456 -.00000040  00000-0  17969-5 0  9994
2 30561  98.8484  58.0087 0062835  66.5508 347.1611 14.08658326667331
Source of the keplerian elements: AFSPC